QPF
0.00 0.00 0.00 0.00 0.00 0.00 0.00 0.00 0.00 0.00 0.00 0.00 0.00 0.00 0.00 0.00 0.00 0.00 0.01 0.02 0.04 0.13 0.23 0.30 0.41 0.57 0.67 0.72 0.85 0.90 0.87 0.77 0.54 0.39 0.36 0.30 0.21 0.18 0.13 0.08 0.05 0.03 0.02 0.01
0.00 0.00 0.00 0.00 0.00 0.00 0.00 0.00 0.00 0.00 0.00 0.00 0.00 0.00 0.00 0.00 0.01 0.01 0.02 0.06 0.11 0.16 0.24 0.32 0.41 0.59 0.64 0.60 0.79 0.97 0.81 0.61 0.47 0.37 0.32 0.28 0.19 0.12 0.06 0.04 0.04 0.03 0.01 0.00
0.00 0.00 0.00 0.00 0.00 0.00 0.00 0.00 0.00 0.00 0.00 0.00 0.00 0.00 0.01 0.02 0.02 0.03 0.05 0.10 0.16 0.22 0.26 0.30 0.29 0.28 0.33 0.45 0.66 0.71 0.52 0.42 0.34 0.27 0.20 0.13 0.10 0.09 0.07 0.05 0.02 0.01 0.01 0.00
0.00 0.00 0.00 0.00 0.00 0.00 0.00 0.00 0.00 0.00 0.00 0.00 0.00 0.00 0.01 0.02 0.03 0.05 0.11 0.15 0.16 0.19 0.23 0.21 0.21 0.26 0.28 0.22 0.23 0.26 0.25 0.20 0.17 0.14 0.12 0.10 0.09 0.08 0.07 0.05 0.03 0.03 0.02 0.03
0.00 0.00 0.00 0.00 0.00 0.00 0.00 0.00 0.00 0.00 0.00 0.00 0.00 0.01 0.02 0.03 0.05 0.07 0.11 0.15 0.13 0.12 0.13 0.11 0.16 0.19 0.15 0.11 0.15 0.16 0.17 0.18 0.16 0.14 0.14 0.13 0.10 0.08 0.07 0.06 0.06 0.08 0.10 0.09
0.00 0.00 0.00 0.00 0.00 0.00 0.00 0.00 0.00 0.00 0.00 0.01 0.02 0.02 0.03 0.07 0.11 0.15 0.16 0.18 0.14 0.10 0.09 0.08 0.07 0.07 0.09 0.10 0.16 0.18 0.17 0.15 0.15 0.13 0.12 0.11 0.08 0.07 0.07 0.07 0.07 0.07 0.07 0.06
0.01 0.01 0.01 0.00 0.00 0.00 0.00 0.00 0.00 0.01 0.02 0.02 0.04 0.05 0.08 0.17 0.27 0.35 0.31 0.23 0.15 0.11 0.07 0.06 0.05 0.06 0.08 0.10 0.11 0.14 0.17 0.16 0.14 0.13 0.11 0.09 0.08 0.08 0.08 0.07 0.07 0.07 0.07 0.06
0.02 0.03 0.01 0.00 0.00 0.00 0.01 0.00 0.00 0.01 0.02 0.01 0.03 0.06 0.13 0.24 0.36 0.38 0.28 0.17 0.09 0.06 0.04 0.04 0.04 0.05 0.05 0.06 0.08 0.09 0.12 0.12 0.11 0.11 0.11 0.09 0.09 0.08 0.08 0.07 0.07 0.08 0.07 0.07
0.01 0.01 0.01 0.01 0.01 0.01 0.01 0.01 0.01 0.00 0.00 0.01 0.04 0.09 0.11 0.15 0.21 0.16 0.12 0.08 0.07 0.05 0.04 0.02 0.02 0.02 0.02 0.02 0.02 0.03 0.04 0.05 0.06 0.07 0.07 0.05 0.04 0.04 0.04 0.04 0.04 0.04 0.04 0.05
0.00 0.00 0.00 0.01 0.01 0.02 0.03 0.02 0.02 0.01 0.01 0.02 0.03 0.10 0.13 0.16 0.15 0.13 0.13 0.10 0.08 0.05 0.02 0.01 0.01 0.00 0.00 0.01 0.00 0.01 0.01 0.01 0.01 0.02 0.02 0.02 0.02 0.02 0.02 0.02 0.01 0.02 0.02 0.02
0.00 0.00 0.00 0.01 0.01 0.02 0.03 0.03 0.02 0.01 0.01 0.03 0.05 0.09 0.13 0.15 0.15 0.18 0.16 0.10 0.05 0.03 0.01 0.01 0.01 0.00 0.00 0.00 0.00 0.00 0.00 0.00 0.00 0.00 0.00 0.01 0.01 0.01 0.01 0.01 0.01 0.01 0.01 0.01
0.00 0.00 0.00 0.00 0.01 0.02 0.03 0.02 0.02 0.02 0.01 0.02 0.05 0.09 0.10 0.10 0.10 0.09 0.06 0.04 0.02 0.01 0.01 0.00 0.00 0.00 0.00 0.00 0.00 0.00 0.00 0.00 0.00 0.00 0.00 0.00 0.00 0.00 0.00 0.00 0.01 0.01 0.01 0.01
0.00 0.00 0.00 0.01 0.02 0.04 0.05 0.04 0.03 0.03 0.02 0.03 0.06 0.07 0.06 0.05 0.04 0.03 0.03 0.01 0.01 0.00 0.00 0.00 0.00 0.00 0.00 0.00 0.00 0.00 0.00 0.00 0.00 0.00 0.00 0.00 0.00 0.00 0.00 0.00 0.00 0.00 0.00 0.00
0.01 0.01 0.01 0.01 0.01 0.03 0.06 0.05 0.04 0.04 0.05 0.05 0.05 0.06 0.04 0.03 0.02 0.01 0.01 0.01 0.00 0.00 0.00 0.00 0.00 0.00 0.00 0.00 0.00 0.00 0.00 0.00 0.00 0.00 0.00 0.00 0.00 0.00 0.00 0.00 0.00 0.00 0.00 0.00
0.00 0.00 0.00 0.00 0.01 0.03 0.05 0.05 0.04 0.04 0.04 0.04 0.03 0.02 0.02 0.01 0.00 0.00 0.00 0.00 0.00 0.00 0.00 0.00 0.00 0.00 0.00 0.00 0.00 0.00 0.00 0.00 0.00 0.00 0.00 0.00 0.00 0.00 0.00 0.00 0.00 0.00 0.00 0.00
0.00 0.00 0.00 0.00 0.01 0.02 0.04 0.06 0.05 0.03 0.02 0.01 0.01 0.00 0.00 0.00 0.00 0.00 0.00 0.00 0.00 0.00 0.00 0.00 0.00 0.00 0.00 0.00 0.00 0.00 0.00 0.00 0.00 0.00 0.00 0.00 0.00 0.00 0.00 0.00 0.00 0.00 0.00 0.00
0.00 0.00 0.00 0.00 0.00 0.01 0.03 0.04 0.03 0.01 0.00 0.00 0.00 0.00 0.00 0.00 0.00 0.00 0.00 0.00 0.00 0.00 0.00 0.00 0.00 0.00 0.00 0.00 0.00 0.00 0.00 0.00 0.00 0.00 0.00 0.00 0.00 0.00 0.00 0.00 0.00 0.01 0.01 0.01
0.00 0.00 0.00 0.00 0.00 0.02 0.02 0.01 0.01 0.00 0.00 0.00 0.00 0.00 0.00 0.00 0.00 0.00 0.00 0.00 0.00 0.00 0.00 0.00 0.00 0.00 0.00 0.00 0.00 0.00 0.00 0.00 0.00 0.00 0.00 0.00 0.00 0.01 0.01 0.01 0.01 0.01 0.01 0.01
0.00 0.00 0.00 0.00 0.00 0.02 0.01 0.00 0.00 0.00 0.00 0.00 0.00 0.00 0.00 0.00 0.00 0.00 0.00 0.00 0.00 0.00 0.00 0.00 0.00 0.00 0.00 0.00 0.00 0.00 0.00 0.00 0.00 0.01 0.01 0.00 0.00 0.01 0.01 0.01 0.00 0.00 0.01 0.01
0.00 0.00 0.00 0.00 0.00 0.01 0.01 0.00 0.00 0.00 0.00 0.00 0.00 0.00 0.00 0.00 0.00 0.00 0.00 0.00 0.00 0.00 0.00 0.00 0.00 0.00 0.00 0.00 0.00 0.00 0.00 0.01 0.01 0.01 0.01 0.01 0.01 0.01 0.01 0.01 0.00 0.00 0.01 0.01
0.00 0.00 0.00 0.00 0.00 0.00 0.00 0.00 0.00 0.00 0.00 0.00 0.00 0.00 0.00 0.00 0.00 0.00 0.00 0.00 0.00 0.00 0.00 0.00 0.00 0.00 0.00 0.00 0.00 0.01 0.01 0.01 0.01 0.01 0.01 0.01 0.01 0.01 0.01 0.00 0.01 0.01 0.01 0.01
0.01 0.01 0.00 0.00 0.00 0.00 0.00 0.00 0.00 0.00 0.00 0.00 0.00 0.00 0.00 0.00 0.00 0.00 0.00 0.00 0.00 0.00 0.00 0.00 0.00 0.00 0.00 0.00 0.01 0.02 0.02 0.01 0.01 0.01 0.02 0.01 0.01 0.01 0.01 0.01 0.01 0.01 0.01 0.01
0.00 0.00 0.00 0.00 0.00 0.00 0.00 0.00 0.00 0.00 0.00 0.00 0.00 0.00 0.00 0.00 0.00 0.00 0.00 0.00 0.00 0.00 0.00 0.00 0.00 0.00 0.00 0.01 0.01 0.03 0.02 0.02 0.02 0.02 0.02 0.02 0.01 0.01 0.01 0.01 0.01 0.01 0.01 0.01
0.00 0.00 0.00 0.00 0.00 0.00 0.00 0.00 0.00 0.00 0.00 0.00 0.00 0.00 0.00 0.00 0.00 0.00 0.00 0.00 0.00 0.00 0.00 0.00 0.00 0.01 0.01 0.01 0.02 0.02 0.03 0.03 0.04 0.03 0.03 0.02 0.02 0.01 0.01 0.01 0.01 0.01 0.01 0.02
0.00 0.00 0.00 0.00 0.00 0.00 0.00 0.00 0.00 0.00 0.00 0.00 0.00 0.00 0.00 0.00 0.00 0.00 0.00 0.00 0.00 0.00 0.00 0.01 0.01 0.02 0.02 0.02 0.02 0.02 0.03 0.03 0.04 0.04 0.04 0.03 0.03 0.02 0.02 0.01 0.01 0.01 0.01 0.01
0.00 0.00 0.00 0.00 0.00 0.00 0.00 0.00 0.00 0.00 0.00 0.00 0.00 0.00 0.00 0.00 0.00 0.00 0.00 0.00 0.00 0.00 0.01 0.01 0.02 0.02 0.02 0.03 0.03 0.02 0.02 0.04 0.05 0.05 0.04 0.03 0.02 0.02 0.02 0.01 0.01 0.01 0.01 0.00
MSLP
1009.67 1010.45 1010.98 1011.23 1011.21 1010.99 1010.64 1010.26 1009.91 1009.65 1009.48 1009.38 1009.34 1009.30 1009.25 1009.18 1009.11 1009.07 1009.09 1009.21 1009.43 1009.76 1010.15 1010.55 1010.91 1011.16 1011.26 1011.21 1011.01 1010.69 1010.30 1009.91 1009.56 1009.28 1009.09 1008.99 1008.96 1009.00 1009.06 1009.16 1009.27 1009.41 1009.58 1009.78
1009.97 1010.58 1010.93 1011.02 1010.90 1010.67 1010.40 1010.18 1010.07 1010.08 1010.19 1010.35 1010.49 1010.58 1010.58 1010.50 1010.37 1010.24 1010.16 1010.18 1010.32 1010.56 1010.86 1011.18 1011.44 1011.59 1011.60 1011.46 1011.19 1010.85 1010.47 1010.13 1009.87 1009.69 1009.60 1009.58 1009.60 1009.63 1009.65 1009.66 1009.67 1009.69 1009.75 1009.86
1010.05 1010.46 1010.62 1010.59 1010.43 1010.25 1010.13 1010.15 1010.34 1010.67 1011.07 1011.48 1011.80 1011.98 1012.00 1011.85 1011.60 1011.32 1011.08 1010.95 1010.94 1011.06 1011.26 1011.49 1011.67 1011.75 1011.70 1011.53 1011.25 1010.93 1010.61 1010.37 1010.21 1010.16 1010.19 1010.26 1010.34 1010.39 1010.38 1010.32 1010.23 1010.14 1010.07 1010.07
1009.97 1010.16 1010.17 1010.05 1009.90 1009.83 1009.92 1010.23 1010.74 1011.39 1012.09 1012.73 1013.19 1013.43 1013.40 1013.14 1012.73 1012.25 1011.82 1011.50 1011.33 1011.31 1011.42 1011.57 1011.70 1011.75 1011.69 1011.52 1011.27 1011.01 1010.77 1010.63 1010.59 1010.65 1010.79 1010.95 1011.08 1011.15 1011.13 1011.01 1010.84 1010.65 1010.47 1010.35
1009.85 1009.83 1009.69 1009.51 1009.41 1009.49 1009.81 1010.41 1011.24 1012.21 1013.17 1013.99 1014.56 1014.80 1014.70 1014.30 1013.69 1013.01 1012.37 1011.86 1011.53 1011.40 1011.42 1011.53 1011.64 1011.70 1011.66 1011.53 1011.34 1011.14 1010.99 1010.93 1010.98 1011.13 1011.34 1011.57 1011.74 1011.82 1011.79 1011.64 1011.41 1011.14 1010.87 1010.66
1009.82 1009.60 1009.33 1009.11 1009.07 1009.30 1009.85 1010.72 1011.82 1013.03 1014.19 1015.15 1015.76 1015.98 1015.78 1015.22 1014.44 1013.56 1012.74 1012.07 1011.63 1011.41 1011.38 1011.48 1011.60 1011.69 1011.71 1011.64 1011.51 1011.37 1011.28 1011.27 1011.37 1011.56 1011.81 1012.05 1012.24 1012.33 1012.29 1012.12 1011.86 1011.54 1011.22 1010.93
1009.95 1009.55 1009.17 1008.93 1008.95 1009.31 1010.03 1011.10 1012.40 1013.77 1015.05 1016.07 1016.68 1016.84 1016.54 1015.85 1014.92 1013.90 1012.95 1012.18 1011.66 1011.41 1011.37 1011.48 1011.64 1011.79 1011.86 1011.84 1011.77 1011.67 1011.61 1011.61 1011.72 1011.90 1012.14 1012.37 1012.55 1012.63 1012.59 1012.41 1012.14 1011.81 1011.47 1011.14
1010.26 1009.72 1009.26 1009.01 1009.07 1009.51 1010.34 1011.51 1012.91 1014.35 1015.65 1016.65 1017.23 1017.31 1016.92 1016.15 1015.13 1014.04 1013.03 1012.23 1011.69 1011.44 1011.42 1011.57 1011.77 1011.96 1012.08 1012.11 1012.07 1011.99 1011.92 1011.91 1011.98 1012.12 1012.31 1012.51 1012.66 1012.72 1012.68 1012.51 1012.26 1011.94 1011.61 1011.28
1010.69 1010.08 1009.59 1009.33 1009.41 1009.88 1010.74 1011.93 1013.30 1014.70 1015.95 1016.87 1017.37 1017.38 1016.94 1016.13 1015.10 1014.01 1013.02 1012.25 1011.74 1011.52 1011.54 1011.72 1011.95 1012.17 1012.32 1012.36 1012.33 1012.24 1012.15 1012.10 1012.11 1012.20 1012.33 1012.47 1012.58 1012.63 1012.58 1012.44 1012.21 1011.93 1011.63 1011.33
1011.16 1010.55 1010.08 1009.85 1009.94 1010.40 1011.21 1012.31 1013.58 1014.85 1015.96 1016.76 1017.15 1017.11 1016.65 1015.86 1014.88 1013.88 1012.97 1012.27 1011.83 1011.65 1011.70 1011.88 1012.12 1012.33 1012.47 1012.51 1012.45 1012.34 1012.22 1012.12 1012.08 1012.10 1012.17 1012.27 1012.34 1012.37 1012.33 1012.21 1012.03 1011.80 1011.54 1011.29
1011.55 1011.04 1010.65 1010.48 1010.58 1011.01 1011.73 1012.69 1013.77 1014.84 1015.76 1016.41 1016.70 1016.60 1016.16 1015.45 1014.58 1013.70 1012.92 1012.32 1011.95 1011.81 1011.85 1012.01 1012.20 1012.37 1012.46 1012.45 1012.36 1012.22 1012.06 1011.93 1011.85 1011.83 1011.86 1011.91 1011.95 1011.97 1011.94 1011.85 1011.70 1011.52 1011.33 1011.12
1011.82 1011.48 1011.24 1011.16 1011.30 1011.68 1012.29 1013.07 1013.94 1014.78 1015.48 1015.96 1016.15 1016.03 1015.63 1015.02 1014.29 1013.56 1012.92 1012.42 1012.10 1011.96 1011.96 1012.05 1012.15 1012.23 1012.23 1012.16 1012.03 1011.85 1011.68 1011.53 1011.42 1011.38 1011.38 1011.40 1011.43 1011.44 1011.41 1011.35 1011.24 1011.11 1010.96 1010.80
1011.96 1011.85 1011.80 1011.85 1012.05 1012.40 1012.89 1013.49 1014.13 1014.74 1015.23 1015.55 1015.64 1015.50 1015.16 1014.66 1014.09 1013.50 1012.98 1012.56 1012.26 1012.09 1012.00 1011.97 1011.94 1011.89 1011.79 1011.64 1011.45 1011.25 1011.06 1010.91 1010.81 1010.76 1010.74 1010.76 1010.77 1010.77 1010.75 1010.70 1010.62 1010.52 1010.42 1010.30
1012.04 1012.18 1012.34 1012.54 1012.81 1013.14 1013.54 1013.97 1014.40 1014.79 1015.09 1015.25 1015.26 1015.11 1014.82 1014.43 1013.98 1013.52 1013.09 1012.71 1012.40 1012.15 1011.94 1011.76 1011.57 1011.37 1011.15 1010.91 1010.67 1010.45 1010.26 1010.12 1010.03 1009.98 1009.97 1009.97 1009.97 1009.96 1009.93 1009.89 1009.83 1009.76 1009.69 1009.60
1012.16 1012.53 1012.89 1013.23 1013.56 1013.89 1014.21 1014.50 1014.75 1014.95 1015.07 1015.10 1015.03 1014.87 1014.62 1014.31 1013.95 1013.58 1013.19 1012.82 1012.46 1012.10 1011.75 1011.40 1011.05 1010.70 1010.35 1010.03 1009.75 1009.51 1009.33 1009.20 1009.12 1009.08 1009.06 1009.05 1009.04 1009.01 1008.97 1008.92 1008.87 1008.82 1008.78 1008.73
1012.41 1012.96 1013.46 1013.91 1014.30 1014.62 1014.86 1015.03 1015.14 1015.17 1015.15 1015.06 1014.93 1014.74 1014.51 1014.24 1013.94 1013.60 1013.23 1012.83 1012.39 1011.92 1011.43 1010.92 1010.41 1009.93 1009.48 1009.08 1008.76 1008.51 1008.33 1008.22 1008.15 1008.10 1008.07 1008.03 1007.99 1007.94 1007.88 1007.82 1007.78 1007.76 1007.74 1007.74
1012.86 1013.49 1014.07 1014.58 1014.98 1015.27 1015.45 1015.52 1015.49 1015.40 1015.25 1015.07 1014.86 1014.64 1014.40 1014.15 1013.86 1013.53 1013.14 1012.69 1012.17 1011.59 1010.97 1010.33 1009.70 1009.11 1008.58 1008.13 1007.78 1007.52 1007.35 1007.23 1007.16 1007.10 1007.04 1006.97 1006.89 1006.80 1006.72 1006.66 1006.63 1006.62 1006.65 1006.68
1013.49 1014.12 1014.70 1015.18 1015.55 1015.79 1015.90 1015.88 1015.75 1015.55 1015.30 1015.03 1014.76 1014.49 1014.22 1013.95 1013.65 1013.30 1012.87 1012.37 1011.78 1011.12 1010.41 1009.67 1008.96 1008.30 1007.72 1007.25 1006.88 1006.62 1006.44 1006.32 1006.22 1006.13 1006.03 1005.92 1005.80 1005.68 1005.58 1005.51 1005.49 1005.51 1005.58 1005.66
1014.23 1014.77 1015.26 1015.67 1015.97 1016.13 1016.16 1016.05 1015.84 1015.55 1015.23 1014.88 1014.55 1014.23 1013.92 1013.61 1013.28 1012.89 1012.43 1011.88 1011.25 1010.54 1009.77 1009.00 1008.25 1007.56 1006.97 1006.49 1006.12 1005.85 1005.66 1005.51 1005.39 1005.26 1005.12 1004.96 1004.80 1004.65 1004.53 1004.47 1004.46 1004.52 1004.62 1004.74
1014.94 1015.34 1015.71 1016.00 1016.19 1016.26 1016.20 1016.02 1015.74 1015.39 1015.01 1014.61 1014.22 1013.85 1013.50 1013.15 1012.78 1012.36 1011.87 1011.30 1010.64 1009.91 1009.14 1008.36 1007.62 1006.94 1006.36 1005.88 1005.51 1005.23 1005.02 1004.85 1004.69 1004.52 1004.33 1004.13 1003.94 1003.77 1003.64 1003.58 1003.60 1003.68 1003.81 1003.96
1015.49 1015.74 1015.95 1016.11 1016.18 1016.16 1016.03 1015.80 1015.47 1015.09 1014.66 1014.22 1013.79 1013.39 1012.99 1012.61 1012.20 1011.76 1011.26 1010.68 1010.03 1009.32 1008.57 1007.83 1007.11 1006.46 1005.89 1005.42 1005.05 1004.76 1004.52 1004.32 1004.12 1003.91 1003.69 1003.46 1003.24 1003.06 1002.94 1002.89 1002.92 1003.02 1003.17 1003.33
1015.80 1015.89 1015.96 1016.00 1015.97 1015.88 1015.69 1015.43 1015.08 1014.68 1014.24 1013.78 1013.33 1012.89 1012.47 1012.06 1011.64 1011.18 1010.68 1010.12 1009.50 1008.82 1008.12 1007.42 1006.74 1006.12 1005.57 1005.11 1004.72 1004.40 1004.14 1003.89 1003.65 1003.41 1003.16 1002.92 1002.69 1002.51 1002.40 1002.36 1002.39 1002.50 1002.65 1002.81
1015.81 1015.78 1015.75 1015.69 1015.60 1015.45 1015.25 1014.97 1014.63 1014.23 1013.80 1013.35 1012.89 1012.44 1012.00 1011.58 1011.14 1010.69 1010.20 1009.67 1009.08 1008.46 1007.80 1007.14 1006.50 1005.89 1005.35 1004.87 1004.46 1004.10 1003.79 1003.50 1003.23 1002.96 1002.70 1002.45 1002.23 1002.06 1001.96 1001.92 1001.96 1002.06 1002.20 1002.34
1015.54 1015.45 1015.35 1015.24 1015.12 1014.96 1014.76 1014.50 1014.19 1013.82 1013.41 1012.97 1012.52 1012.07 1011.63 1011.20 1010.76 1010.32 1009.85 1009.35 1008.80 1008.22 1007.60 1006.97 1006.34 1005.73 1005.17 1004.65 1004.19 1003.78 1003.41 1003.07 1002.76 1002.47 1002.21 1001.97 1001.77 1001.63 1001.54 1001.52 1001.56 1001.64 1001.75 1001.86
1015.09 1014.96 1014.84 1014.73 1014.61 1014.47 1014.30 1014.08 1013.81 1013.47 1013.09 1012.67 1012.24 1011.79 1011.36 1010.93 1010.50 1010.07 1009.62 1009.14 1008.62 1008.07 1007.47 1006.84 1006.20 1005.56 1004.94 1004.36 1003.83 1003.34 1002.91 1002.52 1002.18 1001.88 1001.62 1001.41 1001.24 1001.13 1001.07 1001.06 1001.10 1001.17 1001.25 1001.33
1014.55 1014.43 1014.32 1014.23 1014.14 1014.04 1013.91 1013.74 1013.50 1013.21 1012.86 1012.46 1012.04 1011.61 1011.17 1010.75 1010.32 1009.90 1009.46 1009.00 1008.49 1007.94 1007.33 1006.68 1005.99 1005.29 1004.60 1003.93 1003.30 1002.73 1002.23 1001.79 1001.42 1001.12 1000.88 1000.70 1000.58 1000.51 1000.49 1000.51 1000.56 1000.62 1000.69 1000.75
Thickness
5791 5772 5761 5770 5778 5779 5779 5775 5773 5787 5809 5802 5793 5791 5796 5804 5801 5795 5791 5789 5786 5782 5784 5785 5783 5783 5780 5773 5765 5762 5758 5756 5755 5750 5748 5747 5746 5747 5747 5748 5749 5747 5744 5742
5767 5763 5784 5794 5795 5790 5783 5772 5772 5785 5802 5795 5783 5772 5778 5779 5777 5777 5775 5774 5773 5771 5772 5773 5771 5769 5766 5761 5756 5753 5749 5749 5747 5744 5742 5741 5738 5739 5739 5741 5741 5740 5739 5737
5761 5778 5801 5797 5789 5783 5779 5773 5773 5775 5785 5783 5775 5755 5757 5760 5763 5762 5760 5760 5761 5761 5760 5760 5759 5757 5755 5751 5748 5746 5741 5740 5740 5738 5736 5735 5733 5732 5729 5729 5732 5734 5733 5732
5775 5791 5793 5787 5784 5782 5766 5785 5783 5777 5760 5743 5756 5729 5740 5743 5744 5746 5745 5744 5744 5745 5748 5749 5749 5748 5744 5741 5739 5735 5732 5730 5729 5730 5728 5727 5723 5720 5719 5722 5723 5725 5725 5725
5767 5781 5781 5777 5784 5787 5779 5787 5779 5770 5754 5740 5740 5726 5724 5731 5727 5729 5733 5735 5733 5735 5736 5737 5737 5737 5735 5732 5729 5726 5723 5721 5720 5720 5718 5717 5714 5713 5713 5715 5715 5715 5716 5716
5776 5789 5788 5786 5793 5794 5789 5776 5762 5746 5733 5719 5727 5717 5710 5717 5719 5722 5725 5727 5725 5726 5725 5725 5725 5726 5724 5722 5718 5715 5712 5710 5709 5708 5706 5704 5702 5702 5702 5702 5702 5702 5703 5704
5761 5775 5788 5793 5780 5783 5776 5741 5715 5709 5699 5703 5720 5711 5708 5721 5724 5721 5719 5720 5720 5718 5715 5714 5714 5714 5713 5711 5708 5704 5701 5698 5697 5696 5693 5691 5690 5689 5688 5687 5687 5688 5688 5690
5739 5743 5774 5785 5777 5766 5765 5743 5710 5697 5694 5700 5709 5703 5709 5721 5721 5720 5717 5716 5713 5711 5710 5708 5708 5705 5702 5700 5696 5693 5689 5685 5683 5681 5679 5678 5676 5675 5673 5674 5674 5674 5674 5675
5737 5742 5778 5787 5789 5778 5758 5746 5741 5715 5711 5696 5695 5702 5709 5714 5711 5711 5710 5708 5704 5703 5703 5701 5699 5696 5692 5688 5685 5682 5677 5673 5670 5667 5665 5663 5661 5660 5659 5659 5659 5660 5660 5662
5756 5745 5764 5779 5781 5774 5765 5753 5728 5712 5696 5686 5692 5691 5693 5698 5699 5701 5699 5696 5695 5694 5693 5691 5688 5685 5680 5677 5673 5668 5665 5661 5658 5655 5651 5650 5647 5645 5644 5643 5643 5643 5645 5647
5763 5742 5746 5755 5752 5750 5753 5745 5728 5710 5701 5685 5678 5683 5705 5700 5698 5694 5692 5690 5687 5685 5682 5679 5676 5673 5669 5664 5659 5654 5650 5645 5641 5639 5636 5634 5632 5630 5628 5627 5627 5627 5629 5630
5762 5737 5726 5739 5757 5764 5754 5745 5728 5706 5700 5694 5679 5678 5703 5697 5693 5688 5685 5683 5680 5677 5674 5670 5665 5660 5654 5648 5643 5638 5633 5629 5626 5623 5620 5617 5615 5613 5611 5610 5611 5612 5612 5614
5758 5730 5709 5715 5729 5743 5739 5739 5732 5714 5696 5686 5673 5675 5693 5689 5685 5682 5677 5673 5670 5667 5663 5657 5651 5645 5639 5634 5629 5624 5619 5615 5611 5607 5603 5600 5597 5595 5593 5593 5594 5594 5595 5597
5762 5728 5713 5703 5710 5724 5722 5727 5726 5709 5685 5679 5679 5677 5679 5677 5673 5671 5667 5662 5658 5653 5648 5641 5634 5629 5624 5619 5614 5609 5605 5600 5596 5590 5585 5581 5579 5577 5576 5576 5575 5576 5577 5578
5752 5728 5730 5728 5732 5728 5720 5718 5716 5704 5695 5680 5679 5674 5669 5669 5666 5661 5657 5651 5645 5640 5635 5629 5621 5615 5610 5604 5599 5594 5589 5585 5580 5574 5569 5566 5564 5562 5560 5558 5558 5559 5559 5561
5742 5728 5724 5720 5728 5721 5711 5711 5708 5702 5695 5686 5676 5665 5668 5665 5659 5652 5645 5640 5634 5629 5624 5618 5612 5605 5598 5592 5586 5581 5575 5571 5566 5561 5557 5555 5551 5549 5546 5545 5545 5544 5544 5544
5734 5724 5712 5705 5717 5713 5690 5696 5696 5690 5684 5677 5662 5658 5660 5654 5649 5643 5637 5631 5625 5619 5613 5606 5600 5593 5586 5580 5575 5568 5565 5560 5556 5552 5549 5546 5543 5540 5538 5537 5536 5534 5533 5533
5734 5720 5703 5697 5698 5684 5690 5704 5698 5684 5673 5670 5663 5658 5653 5647 5643 5639 5631 5623 5616 5610 5604 5597 5590 5583 5576 5571 5565 5561 5557 5552 5547 5544 5541 5539 5536 5534 5533 5531 5529 5528 5527 5526
5738 5722 5702 5687 5682 5682 5690 5695 5690 5677 5665 5665 5658 5652 5648 5643 5635 5630 5626 5618 5609 5601 5594 5586 5579 5572 5566 5561 5556 5551 5547 5543 5540 5537 5535 5533 5531 5529 5528 5526 5525 5525 5524 5523
5729 5716 5697 5685 5679 5670 5676 5692 5695 5678 5656 5659 5653 5644 5638 5629 5612 5612 5615 5607 5598 5591 5583 5575 5568 5561 5555 5550 5544 5539 5535 5532 5529 5528 5527 5526 5525 5523 5522 5522 5522 5522 5521 5521
5708 5697 5686 5677 5672 5671 5683 5690 5682 5650 5644 5651 5646 5637 5628 5616 5608 5607 5604 5597 5589 5580 5572 5564 5556 5548 5542 5537 5531 5526 5523 5521 5520 5520 5519 5518 5517 5517 5517 5517 5518 5517 5517 5518
5698 5686 5679 5670 5661 5662 5684 5679 5660 5649 5651 5646 5640 5632 5623 5615 5609 5602 5594 5586 5577 5568 5561 5553 5544 5537 5531 5526 5520 5516 5513 5513 5511 5510 5509 5509 5509 5510 5513 5511 5512 5512 5512 5512
5701 5693 5682 5675 5669 5676 5679 5671 5665 5656 5647 5643 5635 5628 5619 5610 5601 5593 5585 5575 5566 5558 5550 5542 5534 5528 5523 5517 5510 5506 5505 5503 5501 5498 5498 5499 5500 5502 5504 5504 5505 5506 5507 5508
5706 5705 5689 5680 5679 5678 5674 5669 5664 5658 5650 5642 5634 5624 5614 5603 5594 5584 5575 5566 5557 5549 5542 5535 5527 5520 5515 5510 5504 5500 5498 5495 5492 5490 5489 5490 5492 5494 5496 5497 5499 5501 5502 5504
5704 5698 5683 5675 5677 5674 5670 5665 5660 5655 5647 5638 5629 5619 5608 5597 5587 5577 5567 5558 5550 5543 5536 5529 5520 5514 5509 5505 5500 5496 5492 5489 5486 5485 5484 5485 5485 5486 5488 5491 5494 5497 5500 5502
5698 5689 5677 5668 5670 5663 5660 5661 5657 5649 5640 5631 5622 5612 5602 5590 5580 5571 5561 5553 5545 5539 5532 5524 5517 5511 5506 5501 5497 5494 5489 5485 5483 5481 5480 5480 5481 5481 5483 5486 5490 5495 5498 5501